If you wish to contribute or participate in the discussions about articles you are invited to join SKYbrary as a registered user

 Actions

Difference between revisions of "RJSF"

From SKYbrary Wiki

RJSF
m (Text replacement - "===test===" to "")
Line 38: Line 38:
 
|format=ul
 
|format=ul
 
|limit=5}}
 
|limit=5}}
===test===
 

Revision as of 21:42, 25 June 2020

Airport
ICAO: RJSF – IATA: FKS
Summary
Name Fukushima Airport
Region Asia and Pacific
Territory Japan JP.gif
Location Sukagawa, Fukushima Prefecture
Serving Sukagawa
Elevation 371.856 m <br />1,220 ft371.856 m <br />
Coordinates 37° 13' 42.33" N, 140° 25' 43.08" E
Runways
Designator Length Width Surface ROPS
1/19 2500 m8,202.1 ft <br /> 60 m196.85 ft <br /> ASP yes/yes


METAR
Observation RJSF 280700Z 33017KT 9999 FEW030 14/07 Q1016
Station Fukushima Airport
Date/Time 28 October 2021 07:00:00
Wind direction 330°
Wind speed 17 kts
Lowest cloud amount few clouds
Temperature 14°C
Dew point 7°C
Humidity 62%
QNH 1016 hPa
Weather condition n/a

Airport serving northern and central Fukushima Prefecture, Japan, located in the city of Sukagawa. The airport is located 19.4 km10.475 nm <br />19,400 m <br />63,648.294 ft <br /> southeast of Kōriyama.

Climatology

Humid Sub-tropical climate (Köppen climate classification Cfa)

Maps

Terrain

Loading map...

Airport Layout

Loading map...


Accidents & Serious Incidents at or in vicinity of RJSF

None on SKYbrary